{"data":{"norad_id":40552,"epoch":"2026-09-20T05:41:15.308736Z","epoch_age_seconds":63918,"freshness":"FRESH","line1":"1 40552U 15020A   26263.23698274  .00000094  00000+0  60349-3 0  9991","line2":"2 40552  82.4902 331.7762 0017013 152.2416 207.9575 12.42881616520545","mean_motion":12.42881616,"eccentricity":0.0017013,"inclination_deg":82.4902,"raan_deg":331.7762,"arg_perigee_deg":152.2416,"mean_anomaly_deg":207.9575,"bstar":0.00060349,"rev_number":52054,"period_min":115.85978756645,"perigee_km":1481.0176977216,"apogee_km":1507.8048304449,"semimajor_km":7872.5482640833,"source":"CELESTRAK","updated_at":"2026-09-20T09:00:14.067153Z"}}